Volver al catálogo

STARLINK-32550

ActivoComunicacionesVLEO
NORAD 62131·PAYLOAD·🇺🇸 United States

Lanzado Nov 27, 2024 desde Cape Canaveral Space Force Station

Loading…

Próximos Pases (próximas 24 horas)

TLE

ActualizadoSource: CelesTrak SupGP

Época: Sep 15, 2026, 02:13 UTC

1 62131C 24222T   26258.09284722  .00025120  00000+0  90996-3 0  2585
2 62131  43.0008 146.7799 0001489 277.0587  54.8825 15.27561708    16

Sigue STARLINK-32550 en tiempo real con AllMySat

Download on the App Store